STARLINK-36306

Last updated on Sun Apr 12 2026 00:02:06 GMT+0000 (Coordinated Universal Time)

1 68160U 26049U 26101.49457503 .00289393 00000+0 18692-2 0 9990 2 68160 97.2843 122.3786 0000301 73.0734 287.0564 15.75273155 4583
UTC large
Height (km)
Speed (km/s)
/
Latitude / Longitude
Inclination (degrees)
Orbital Period (minutes)
Azimuth
Elevation
Range (km)
Doppler Factor

Next 0 passes for location: London (51.5072 / 0.1276)

Sorry there are no passes over London.
STARLINK-36306